Year,Month,Day,Hour,Minute,Value (Times are PST for temperature in C)
2016,08,16,00,00,17.40
2016,08,16,00,01,17.40
2016,08,16,00,02,17.40
2016,08,16,00,03,17.40
2016,08,16,00,04,17.50
2016,08,16,00,05,17.50
2016,08,16,00,06,17.50
2016,08,16,00,07,17.50
2016,08,16,00,08,17.50
2016,08,16,00,09,17.60
2016,08,16,00,10,17.60
2016,08,16,00,11,17.60
2016,08,16,00,12,17.60
2016,08,16,00,13,17.60
2016,08,16,00,14,17.60
2016,08,16,00,15,17.60
2016,08,16,00,16,17.60
2016,08,16,00,17,17.60
2016,08,16,00,18,17.60
2016,08,16,00,19,17.60
2016,08,16,00,20,17.60
2016,08,16,00,21,17.60
2016,08,16,00,22,17.60
2016,08,16,00,23,17.60
2016,08,16,00,24,17.60
2016,08,16,00,25,17.60
2016,08,16,00,26,17.50
2016,08,16,00,27,17.50
2016,08,16,00,28,17.50
2016,08,16,00,29,17.50
2016,08,16,00,30,17.50
2016,08,16,00,31,17.50
2016,08,16,00,32,17.40
2016,08,16,00,33,17.40
2016,08,16,00,34,17.40
2016,08,16,00,35,17.40
2016,08,16,00,36,17.40
2016,08,16,00,37,17.40
2016,08,16,00,38,17.40
2016,08,16,00,39,17.40
2016,08,16,00,40,17.40
2016,08,16,00,41,17.40
2016,08,16,00,42,17.40
2016,08,16,00,43,17.40
2016,08,16,00,44,17.40
2016,08,16,00,45,17.30
2016,08,16,00,46,17.30
2016,08,16,00,47,17.30
2016,08,16,00,48,17.30
2016,08,16,00,49,17.30
2016,08,16,00,50,17.20
2016,08,16,00,51,17.20
2016,08,16,00,52,17.20
2016,08,16,00,53,17.20
2016,08,16,00,54,17.20
2016,08,16,00,55,17.20
2016,08,16,00,56,17.20
2016,08,16,00,57,17.20
2016,08,16,00,58,17.20
2016,08,16,00,59,17.20
2016,08,16,01,00,17.20
2016,08,16,01,01,17.20
2016,08,16,01,02,17.20
2016,08,16,01,03,17.20
2016,08,16,01,04,17.20
2016,08,16,01,05,17.20
2016,08,16,01,06,17.20
2016,08,16,01,07,17.20
2016,08,16,01,08,17.20
2016,08,16,01,09,17.20
2016,08,16,01,10,17.20
2016,08,16,01,11,17.10
2016,08,16,01,12,17.10
2016,08,16,01,13,17.10
2016,08,16,01,14,17.10
2016,08,16,01,15,17.10
2016,08,16,01,16,17.10
2016,08,16,01,17,17.10
2016,08,16,01,18,17.10
2016,08,16,01,19,17.10
2016,08,16,01,20,17.00
2016,08,16,01,21,17.00
2016,08,16,01,22,17.00
2016,08,16,01,23,17.00
2016,08,16,01,24,16.90
2016,08,16,01,25,16.90
2016,08,16,01,26,16.90
2016,08,16,01,27,16.90
2016,08,16,01,28,16.90
2016,08,16,01,29,16.90
2016,08,16,01,30,16.90
2016,08,16,01,31,16.80
2016,08,16,01,32,16.80
2016,08,16,01,33,16.80
2016,08,16,01,34,16.80
2016,08,16,01,35,16.80
2016,08,16,01,36,16.80
2016,08,16,01,37,16.70
2016,08,16,01,38,16.70
2016,08,16,01,39,16.70
2016,08,16,01,40,16.70
2016,08,16,01,41,16.70
2016,08,16,01,42,16.70
2016,08,16,01,43,16.70
2016,08,16,01,44,16.70
2016,08,16,01,45,16.70
2016,08,16,01,46,16.70
2016,08,16,01,47,16.60
2016,08,16,01,48,16.60
2016,08,16,01,49,16.60
2016,08,16,01,50,16.50
2016,08,16,01,51,16.50
2016,08,16,01,52,16.40
2016,08,16,01,53,16.40
2016,08,16,01,54,16.40
2016,08,16,01,55,16.40
2016,08,16,01,56,16.30
2016,08,16,01,57,16.30
2016,08,16,01,58,16.30
2016,08,16,01,59,16.20
2016,08,16,02,00,16.20
2016,08,16,02,01,16.20
2016,08,16,02,02,16.10
2016,08,16,02,03,16.10
2016,08,16,02,04,16.10
2016,08,16,02,05,16.10
2016,08,16,02,06,16.10
2016,08,16,02,07,16.10
2016,08,16,02,08,16.00
2016,08,16,02,09,16.00
2016,08,16,02,10,16.00
2016,08,16,02,11,16.00
2016,08,16,02,12,16.00
2016,08,16,02,13,16.00
2016,08,16,02,14,16.00
2016,08,16,02,15,16.00
2016,08,16,02,16,16.00
2016,08,16,02,17,16.00
2016,08,16,02,18,16.00
2016,08,16,02,19,16.00
2016,08,16,02,20,16.10
2016,08,16,02,21,16.10
2016,08,16,02,22,16.00
2016,08,16,02,23,16.00
2016,08,16,02,24,16.00
2016,08,16,02,25,16.00
2016,08,16,02,26,16.00
2016,08,16,02,27,16.00
2016,08,16,02,28,16.00
2016,08,16,02,29,16.00
2016,08,16,02,30,16.00
2016,08,16,02,31,16.00
2016,08,16,02,32,16.00
2016,08,16,02,33,16.00
2016,08,16,02,34,16.00
2016,08,16,02,35,16.00
2016,08,16,02,36,16.00
2016,08,16,02,37,16.00
2016,08,16,02,38,16.00
2016,08,16,02,39,16.10
2016,08,16,02,40,16.10
2016,08,16,02,41,16.10
2016,08,16,02,42,16.10
2016,08,16,02,43,16.10
2016,08,16,02,44,16.10
2016,08,16,02,45,16.00
2016,08,16,02,46,16.00
2016,08,16,02,47,16.00
2016,08,16,02,48,16.00
2016,08,16,02,49,16.00
2016,08,16,02,50,16.10
2016,08,16,02,51,16.00
2016,08,16,02,52,16.00
2016,08,16,02,53,16.00
2016,08,16,02,54,16.00
2016,08,16,02,55,16.00
2016,08,16,02,56,15.90
2016,08,16,02,57,15.90
2016,08,16,02,58,15.90
2016,08,16,02,59,15.90
2016,08,16,03,00,15.90
2016,08,16,03,01,15.90
2016,08,16,03,02,15.90
2016,08,16,03,03,15.90
2016,08,16,03,04,15.90
2016,08,16,03,05,15.90
2016,08,16,03,06,15.90
2016,08,16,03,07,15.90
2016,08,16,03,08,15.90
2016,08,16,03,09,15.90
2016,08,16,03,10,15.90
2016,08,16,03,11,15.90
2016,08,16,03,12,15.90
2016,08,16,03,13,15.90
2016,08,16,03,14,15.90
2016,08,16,03,15,15.90
2016,08,16,03,16,15.90
2016,08,16,03,17,15.90
2016,08,16,03,18,15.90
2016,08,16,03,19,15.90
2016,08,16,03,20,15.90
2016,08,16,03,21,15.80
2016,08,16,03,22,15.80
2016,08,16,03,23,15.80
2016,08,16,03,24,15.80
2016,08,16,03,25,15.80
2016,08,16,03,26,15.80
2016,08,16,03,27,15.80
2016,08,16,03,28,15.80
2016,08,16,03,29,15.70
2016,08,16,03,30,15.70
2016,08,16,03,31,15.70
2016,08,16,03,32,15.70
2016,08,16,03,33,15.70
2016,08,16,03,34,15.70
2016,08,16,03,35,15.80
2016,08,16,03,36,15.80
2016,08,16,03,37,15.80
2016,08,16,03,38,15.80
2016,08,16,03,39,15.80
2016,08,16,03,40,15.80
2016,08,16,03,41,15.80
2016,08,16,03,42,15.80
2016,08,16,03,43,15.80
2016,08,16,03,44,15.80
2016,08,16,03,45,15.80
2016,08,16,03,46,15.80
2016,08,16,03,47,15.80
2016,08,16,03,48,15.80
2016,08,16,03,49,15.80
2016,08,16,03,50,15.80
2016,08,16,03,51,15.80
2016,08,16,03,52,15.80
2016,08,16,03,53,15.80
2016,08,16,03,54,15.80
2016,08,16,03,55,15.80
2016,08,16,03,56,15.80
2016,08,16,03,57,15.80
2016,08,16,03,58,15.80
2016,08,16,03,59,15.80
2016,08,16,04,00,15.80
2016,08,16,04,01,15.80
2016,08,16,04,02,15.80
2016,08,16,04,03,15.70
2016,08,16,04,04,15.70
2016,08,16,04,05,15.70
2016,08,16,04,06,15.70
2016,08,16,04,07,15.70
2016,08,16,04,08,15.70
2016,08,16,04,09,15.70
2016,08,16,04,10,15.70
2016,08,16,04,11,15.70
2016,08,16,04,12,15.70
2016,08,16,04,13,15.70
2016,08,16,04,14,15.70
2016,08,16,04,15,15.70
2016,08,16,04,16,15.70
2016,08,16,04,17,15.70
2016,08,16,04,18,15.70
2016,08,16,04,19,15.70
2016,08,16,04,20,15.70
2016,08,16,04,21,15.70
2016,08,16,04,22,15.70
2016,08,16,04,23,15.70
2016,08,16,04,24,15.70
2016,08,16,04,25,15.70
2016,08,16,04,26,15.70
2016,08,16,04,27,15.70
2016,08,16,04,28,15.70
2016,08,16,04,29,15.70
2016,08,16,04,30,15.70
2016,08,16,04,31,15.70
2016,08,16,04,32,15.60
2016,08,16,04,33,15.60
2016,08,16,04,34,15.60
2016,08,16,04,35,15.60
2016,08,16,04,36,15.60
2016,08,16,04,37,15.60
2016,08,16,04,38,15.60
2016,08,16,04,39,15.60
2016,08,16,04,40,15.60
2016,08,16,04,41,15.50
2016,08,16,04,42,15.50
2016,08,16,04,43,15.50
2016,08,16,04,44,15.50
2016,08,16,04,45,15.50
2016,08,16,04,46,15.50
2016,08,16,04,47,15.50
2016,08,16,04,48,15.50
2016,08,16,04,49,15.60
2016,08,16,04,50,15.60
2016,08,16,04,51,15.60
2016,08,16,04,52,15.60
2016,08,16,04,53,15.60
2016,08,16,04,54,15.60
2016,08,16,04,55,15.60
2016,08,16,04,56,15.50
2016,08,16,04,57,15.50
2016,08,16,04,58,15.50
2016,08,16,04,59,15.50
2016,08,16,05,00,15.50
2016,08,16,05,01,15.40
2016,08,16,05,02,15.40
2016,08,16,05,03,15.40
2016,08,16,05,04,15.40
2016,08,16,05,05,15.40
2016,08,16,05,06,15.30
2016,08,16,05,07,15.30
2016,08,16,05,08,15.30
2016,08,16,05,09,15.30
2016,08,16,05,10,15.30
2016,08,16,05,11,15.30
2016,08,16,05,12,15.30
2016,08,16,05,13,15.30
2016,08,16,05,14,15.30
2016,08,16,05,15,15.30
2016,08,16,05,16,15.30
2016,08,16,05,17,15.30
2016,08,16,05,18,15.30
2016,08,16,05,19,15.20
2016,08,16,05,20,15.20
2016,08,16,05,21,15.20
2016,08,16,05,22,15.20
2016,08,16,05,23,15.10
2016,08,16,05,24,15.10
2016,08,16,05,25,15.10
2016,08,16,05,26,15.10
2016,08,16,05,27,15.20
2016,08,16,05,28,15.10
2016,08,16,05,29,15.10
2016,08,16,05,30,15.10
2016,08,16,05,31,15.10
2016,08,16,05,32,15.10
2016,08,16,05,33,15.10
2016,08,16,05,34,15.10
2016,08,16,05,35,15.10
2016,08,16,05,36,15.10
2016,08,16,05,37,15.10
2016,08,16,05,38,15.10
2016,08,16,05,39,15.10
2016,08,16,05,40,15.00
2016,08,16,05,41,15.00
2016,08,16,05,42,15.00
2016,08,16,05,43,15.00
2016,08,16,05,44,15.00
2016,08,16,05,45,14.90
2016,08,16,05,46,14.90
2016,08,16,05,47,14.90
2016,08,16,05,48,14.90
2016,08,16,05,49,14.90
2016,08,16,05,50,14.90
2016,08,16,05,51,14.90
2016,08,16,05,52,14.90
2016,08,16,05,53,14.90
2016,08,16,05,54,14.90
2016,08,16,05,55,15.00
2016,08,16,05,56,15.00
2016,08,16,05,57,15.00
2016,08,16,05,58,15.00
2016,08,16,05,59,15.00
2016,08,16,06,00,15.10
2016,08,16,06,01,15.10
2016,08,16,06,02,15.10
2016,08,16,06,03,15.10
2016,08,16,06,04,15.10
2016,08,16,06,05,15.10
2016,08,16,06,06,15.10
2016,08,16,06,07,15.10
2016,08,16,06,08,15.10
2016,08,16,06,09,15.10
2016,08,16,06,10,15.10
2016,08,16,06,11,15.10
2016,08,16,06,12,15.10
2016,08,16,06,13,15.10
2016,08,16,06,14,15.10
2016,08,16,06,15,15.10
2016,08,16,06,16,15.10
2016,08,16,06,17,15.10
2016,08,16,06,18,15.10
2016,08,16,06,19,15.10
2016,08,16,06,20,15.10
2016,08,16,06,21,15.10
2016,08,16,06,22,15.10
2016,08,16,06,23,15.10
2016,08,16,06,24,15.10
2016,08,16,06,25,15.10
2016,08,16,06,26,15.10
2016,08,16,06,27,15.10
2016,08,16,06,28,15.10
2016,08,16,06,29,15.00
2016,08,16,06,30,15.00
2016,08,16,06,31,15.00
2016,08,16,06,32,15.00
2016,08,16,06,33,15.10
2016,08,16,06,34,15.10
2016,08,16,06,35,15.10
2016,08,16,06,36,15.10
2016,08,16,06,37,15.10
2016,08,16,06,38,15.10
2016,08,16,06,39,15.10
2016,08,16,06,40,15.10
2016,08,16,06,41,15.20
2016,08,16,06,42,15.20
2016,08,16,06,43,15.20
2016,08,16,06,44,15.20
2016,08,16,06,45,15.20
2016,08,16,06,46,15.20
2016,08,16,06,47,15.20
2016,08,16,06,48,15.30
2016,08,16,06,49,15.30
2016,08,16,06,50,15.30
2016,08,16,06,51,15.30
2016,08,16,06,52,15.40
2016,08,16,06,53,15.50
2016,08,16,06,54,15.50
2016,08,16,06,55,15.50
2016,08,16,06,56,15.60
2016,08,16,06,57,15.60
2016,08,16,06,58,15.60
2016,08,16,06,59,15.60
2016,08,16,07,00,15.70
2016,08,16,07,01,15.70
2016,08,16,07,02,15.70
2016,08,16,07,03,15.70
2016,08,16,07,04,15.80
2016,08,16,07,05,15.80
2016,08,16,07,06,15.80
2016,08,16,07,07,15.80
2016,08,16,07,08,15.90
2016,08,16,07,09,15.90
2016,08,16,07,10,15.90
2016,08,16,07,11,16.00
2016,08,16,07,12,16.10
2016,08,16,07,13,16.10
2016,08,16,07,14,16.10
2016,08,16,07,15,16.20
2016,08,16,07,16,16.20
2016,08,16,07,17,16.20
2016,08,16,07,18,16.30
2016,08,16,07,19,16.30
2016,08,16,07,20,16.30
2016,08,16,07,21,16.40
2016,08,16,07,22,16.40
2016,08,16,07,23,16.50
2016,08,16,07,24,16.50
2016,08,16,07,25,16.60
2016,08,16,07,26,16.60
2016,08,16,07,27,16.60
2016,08,16,07,28,16.70
2016,08,16,07,29,16.70
2016,08,16,07,30,16.70
2016,08,16,07,31,16.80
2016,08,16,07,32,16.80
2016,08,16,07,33,16.80
2016,08,16,07,34,16.90
2016,08,16,07,35,16.90
2016,08,16,07,36,16.90
2016,08,16,07,37,17.00
2016,08,16,07,38,17.00
2016,08,16,07,39,17.10
2016,08,16,07,40,17.10
2016,08,16,07,41,17.10
2016,08,16,07,42,17.20
2016,08,16,07,43,17.20
2016,08,16,07,44,17.20
2016,08,16,07,45,17.20
2016,08,16,07,46,17.20
2016,08,16,07,47,17.30
2016,08,16,07,48,17.30
2016,08,16,07,49,17.30
2016,08,16,07,50,17.30
2016,08,16,07,51,17.30
2016,08,16,07,52,17.40
2016,08,16,07,53,17.40
2016,08,16,07,54,17.40
2016,08,16,07,55,17.40
2016,08,16,07,56,17.50
2016,08,16,07,57,17.50
2016,08,16,07,58,17.60
2016,08,16,07,59,17.60
2016,08,16,08,00,17.60
2016,08,16,08,01,17.70
2016,08,16,08,02,17.70
2016,08,16,08,03,17.70
2016,08,16,08,04,17.70
2016,08,16,08,05,17.80
2016,08,16,08,06,17.80
2016,08,16,08,07,17.80
2016,08,16,08,08,17.80
2016,08,16,08,09,17.90
2016,08,16,08,10,17.90
2016,08,16,08,11,17.90
2016,08,16,08,12,18.00
2016,08,16,08,13,18.00
2016,08,16,08,14,18.10
2016,08,16,08,15,18.10
2016,08,16,08,16,18.10
2016,08,16,08,17,18.10
2016,08,16,08,18,18.20
2016,08,16,08,19,18.20
2016,08,16,08,20,18.20
2016,08,16,08,21,18.20
2016,08,16,08,22,18.20
2016,08,16,08,23,18.30
2016,08,16,08,24,18.30
2016,08,16,08,25,18.30
2016,08,16,08,26,18.40
2016,08,16,08,27,18.40
2016,08,16,08,28,18.40
2016,08,16,08,29,18.40
2016,08,16,08,30,18.40
2016,08,16,08,31,18.40
2016,08,16,08,32,18.50
2016,08,16,08,33,18.50
2016,08,16,08,34,18.50
2016,08,16,08,35,18.60
2016,08,16,08,36,18.60
2016,08,16,08,37,18.60
2016,08,16,08,38,18.60
2016,08,16,08,39,18.60
2016,08,16,08,40,18.60
2016,08,16,08,41,18.60
2016,08,16,08,42,18.60
2016,08,16,08,43,18.70
2016,08,16,08,44,18.70
2016,08,16,08,45,18.70
2016,08,16,08,46,18.70
2016,08,16,08,47,18.70
2016,08,16,08,48,18.70
2016,08,16,08,49,18.60
2016,08,16,08,50,18.60
2016,08,16,08,51,18.60
2016,08,16,08,52,18.60
2016,08,16,08,53,18.60
2016,08,16,08,54,18.60
2016,08,16,08,55,18.60
2016,08,16,08,56,18.60
2016,08,16,08,57,18.50
2016,08,16,08,58,18.50
2016,08,16,08,59,18.50
2016,08,16,09,00,18.50
2016,08,16,09,01,18.50
2016,08,16,09,02,18.50
2016,08,16,09,03,18.50
2016,08,16,09,04,18.50
2016,08,16,09,05,18.50
2016,08,16,09,06,18.50
2016,08,16,09,07,18.50
2016,08,16,09,08,18.50
2016,08,16,09,09,18.40
2016,08,16,09,10,18.40
2016,08,16,09,11,18.40
2016,08,16,09,12,18.40
2016,08,16,09,13,18.40
2016,08,16,09,14,18.40
2016,08,16,09,15,18.40
2016,08,16,09,16,18.40
2016,08,16,09,17,18.50
2016,08,16,09,18,18.50
2016,08,16,09,19,18.60
2016,08,16,09,20,18.60
2016,08,16,09,21,18.70
2016,08,16,09,22,18.60
2016,08,16,09,23,18.50
2016,08,16,09,24,18.40
2016,08,16,09,25,18.40
2016,08,16,09,26,18.40
2016,08,16,09,27,18.40
2016,08,16,09,28,18.30
2016,08,16,09,29,18.30
2016,08,16,09,30,18.20
2016,08,16,09,31,18.20
2016,08,16,09,32,18.20
2016,08,16,09,33,18.20
2016,08,16,09,34,18.20
2016,08,16,09,35,18.20
2016,08,16,09,36,18.20
2016,08,16,09,37,18.20
2016,08,16,09,38,18.20
2016,08,16,09,39,18.20
2016,08,16,09,40,18.20
2016,08,16,09,41,18.20
2016,08,16,09,42,18.20
2016,08,16,09,43,18.20
2016,08,16,09,44,18.20
2016,08,16,09,45,18.10
2016,08,16,09,46,18.10
2016,08,16,09,47,18.10
2016,08,16,09,48,18.10
2016,08,16,09,49,18.10
2016,08,16,09,50,18.10
2016,08,16,09,51,18.10
2016,08,16,09,52,18.20
2016,08,16,09,53,18.20
2016,08,16,09,54,18.30
2016,08,16,09,55,18.30
2016,08,16,09,56,18.30
2016,08,16,09,57,18.30
2016,08,16,09,58,18.20
2016,08,16,09,59,18.20
2016,08,16,10,00,18.20
2016,08,16,10,01,18.20
2016,08,16,10,02,18.10
2016,08,16,10,03,18.10
2016,08,16,10,04,18.10
2016,08,16,10,05,18.20
2016,08,16,10,06,18.20
2016,08,16,10,07,18.20
2016,08,16,10,08,18.30
2016,08,16,10,09,18.30
2016,08,16,10,10,18.30
2016,08,16,10,11,18.30
2016,08,16,10,12,18.40
2016,08,16,10,13,18.40
2016,08,16,10,14,18.40
2016,08,16,10,15,18.40
2016,08,16,10,16,18.50
2016,08,16,10,17,18.50
2016,08,16,10,18,18.60
2016,08,16,10,19,18.60
2016,08,16,10,20,18.60
2016,08,16,10,21,18.60
2016,08,16,10,22,18.70
2016,08,16,10,23,18.70
2016,08,16,10,24,18.70
2016,08,16,10,25,18.80
2016,08,16,10,26,18.80
2016,08,16,10,27,18.80
2016,08,16,10,28,18.80
2016,08,16,10,29,18.80
2016,08,16,10,30,18.80
2016,08,16,10,31,18.80
2016,08,16,10,32,18.70
2016,08,16,10,33,18.70
2016,08,16,10,34,18.60
2016,08,16,10,35,18.60
2016,08,16,10,36,18.70
2016,08,16,10,37,18.70
2016,08,16,10,38,18.80
2016,08,16,10,39,18.90
2016,08,16,10,40,19.00
2016,08,16,10,41,19.00
2016,08,16,10,42,19.10
2016,08,16,10,43,19.20
2016,08,16,10,44,19.20
2016,08,16,10,45,19.20
2016,08,16,10,46,19.30
2016,08,16,10,47,19.30
2016,08,16,10,48,19.30
2016,08,16,10,49,19.40
2016,08,16,10,50,19.40
2016,08,16,10,51,19.50
2016,08,16,10,52,19.50
2016,08,16,10,53,19.50
2016,08,16,10,54,19.50
2016,08,16,10,55,19.40
2016,08,16,10,56,19.40
2016,08,16,10,57,19.40
2016,08,16,10,58,19.40
2016,08,16,10,59,19.40
2016,08,16,11,00,19.40
2016,08,16,11,01,19.30
2016,08,16,11,02,19.30
2016,08,16,11,03,19.30
2016,08,16,11,04,19.30
2016,08,16,11,05,19.40
2016,08,16,11,06,19.50
2016,08,16,11,07,19.50
2016,08,16,11,08,19.60
2016,08,16,11,09,19.70
2016,08,16,11,10,19.80
2016,08,16,11,11,19.80
2016,08,16,11,12,19.80
2016,08,16,11,13,19.80
2016,08,16,11,14,19.80
2016,08,16,11,15,19.80
2016,08,16,11,16,19.80
2016,08,16,11,17,19.80
2016,08,16,11,18,19.90
2016,08,16,11,19,19.90
2016,08,16,11,20,19.90
2016,08,16,11,21,19.90
2016,08,16,11,22,19.90
2016,08,16,11,23,19.90
2016,08,16,11,24,20.00
2016,08,16,11,25,20.00
2016,08,16,11,26,20.00
2016,08,16,11,27,20.10
2016,08,16,11,28,20.10
2016,08,16,11,29,20.10
2016,08,16,11,30,20.10
2016,08,16,11,31,20.20
2016,08,16,11,32,20.20
2016,08,16,11,33,20.20
2016,08,16,11,34,20.30
2016,08,16,11,35,20.30
2016,08,16,11,36,20.40
2016,08,16,11,37,20.40
2016,08,16,11,38,20.40
2016,08,16,11,39,20.30
2016,08,16,11,40,20.30
2016,08,16,11,41,20.30
2016,08,16,11,42,20.30
2016,08,16,11,43,20.30
2016,08,16,11,44,20.20
2016,08,16,11,45,20.20
2016,08,16,11,46,20.20
2016,08,16,11,47,20.20
2016,08,16,11,48,20.20
2016,08,16,11,49,20.20
2016,08,16,11,50,20.20
2016,08,16,11,51,20.30
2016,08,16,11,52,20.30
2016,08,16,11,53,20.30
2016,08,16,11,54,20.30
2016,08,16,11,55,20.30
2016,08,16,11,56,20.30
2016,08,16,11,57,20.40
2016,08,16,11,58,20.40
2016,08,16,11,59,20.40
2016,08,16,12,00,20.40
2016,08,16,12,01,20.50
2016,08,16,12,02,20.50
2016,08,16,12,03,20.60
2016,08,16,12,04,20.60
2016,08,16,12,05,20.70
2016,08,16,12,06,20.70
2016,08,16,12,07,20.70
2016,08,16,12,08,20.80
2016,08,16,12,09,20.90
2016,08,16,12,10,20.80
2016,08,16,12,11,20.80
2016,08,16,12,12,20.70
2016,08,16,12,13,20.70
2016,08,16,12,14,20.70
2016,08,16,12,15,20.70
2016,08,16,12,16,20.80
2016,08,16,12,17,20.80
2016,08,16,12,18,20.80
2016,08,16,12,19,20.80
2016,08,16,12,20,20.80
2016,08,16,12,21,20.80
2016,08,16,12,22,20.80
2016,08,16,12,23,20.80
2016,08,16,12,24,20.80
2016,08,16,12,25,20.80
2016,08,16,12,26,20.80
2016,08,16,12,27,20.80
2016,08,16,12,28,20.80
2016,08,16,12,29,20.80
2016,08,16,12,30,20.80
2016,08,16,12,31,20.80
2016,08,16,12,32,20.80
2016,08,16,12,33,20.80
2016,08,16,12,34,20.80
2016,08,16,12,35,20.90
2016,08,16,12,36,20.90
2016,08,16,12,37,20.90
2016,08,16,12,38,20.90
2016,08,16,12,39,21.00
2016,08,16,12,40,21.00
2016,08,16,12,41,21.10
2016,08,16,12,42,21.10
2016,08,16,12,43,21.10
2016,08,16,12,44,21.20
2016,08,16,12,45,21.20
2016,08,16,12,46,21.30
2016,08,16,12,47,21.30
2016,08,16,12,48,21.30
2016,08,16,12,49,21.40
2016,08,16,12,50,21.40
2016,08,16,12,51,21.40
2016,08,16,12,52,21.50
2016,08,16,12,53,21.60
2016,08,16,12,54,21.60
2016,08,16,12,55,21.70
2016,08,16,12,56,21.70
2016,08,16,12,57,21.70
2016,08,16,12,58,21.70
2016,08,16,12,59,21.70
2016,08,16,13,00,21.70
2016,08,16,13,01,21.70
2016,08,16,13,02,21.70
2016,08,16,13,03,21.60
2016,08,16,13,04,21.60
2016,08,16,13,05,21.60
2016,08,16,13,06,21.60
2016,08,16,13,07,21.70
2016,08,16,13,08,21.70
2016,08,16,13,09,21.70
2016,08,16,13,10,21.80
2016,08,16,13,11,21.80
2016,08,16,13,12,21.80
2016,08,16,13,13,21.90
2016,08,16,13,14,21.90
2016,08,16,13,15,21.90
2016,08,16,13,16,22.00
2016,08,16,13,17,22.10
2016,08,16,13,18,22.10
2016,08,16,13,19,22.20
2016,08,16,13,20,22.20
2016,08,16,13,21,22.20
2016,08,16,13,22,22.20
2016,08,16,13,23,22.20
2016,08,16,13,24,22.30
2016,08,16,13,25,22.40
2016,08,16,13,26,22.40
2016,08,16,13,27,22.40
2016,08,16,13,28,22.40
2016,08,16,13,29,22.40
2016,08,16,13,30,22.40
2016,08,16,13,31,22.50
2016,08,16,13,32,22.50
2016,08,16,13,33,22.50
2016,08,16,13,34,22.50
2016,08,16,13,35,22.40
2016,08,16,13,36,22.30
2016,08,16,13,37,22.30
2016,08,16,13,38,22.20
2016,08,16,13,39,22.30
2016,08,16,13,40,22.30
2016,08,16,13,41,22.40
2016,08,16,13,42,22.50
2016,08,16,13,43,22.70
2016,08,16,13,44,22.80
2016,08,16,13,45,22.80
2016,08,16,13,46,22.90
2016,08,16,13,47,22.90
2016,08,16,13,48,22.90
2016,08,16,13,49,22.90
2016,08,16,13,50,22.90
2016,08,16,13,51,23.00
2016,08,16,13,52,23.10
2016,08,16,13,53,23.10
2016,08,16,13,54,23.20
2016,08,16,13,55,23.20
2016,08,16,13,56,23.20
2016,08,16,13,57,23.30
2016,08,16,13,58,23.30
2016,08,16,13,59,23.40
2016,08,16,14,00,23.40
2016,08,16,14,01,23.40
2016,08,16,14,02,23.40
2016,08,16,14,03,23.40
2016,08,16,14,04,23.40
2016,08,16,14,05,23.40
2016,08,16,14,06,23.20
2016,08,16,14,07,23.10
2016,08,16,14,08,23.00
2016,08,16,14,09,22.90
2016,08,16,14,10,22.60
2016,08,16,14,11,22.40
2016,08,16,14,12,22.20
2016,08,16,14,13,22.10
2016,08,16,14,14,22.00
2016,08,16,14,15,22.00
2016,08,16,14,16,21.90
2016,08,16,14,17,21.90
2016,08,16,14,18,21.90
2016,08,16,14,19,22.00
2016,08,16,14,20,22.10
2016,08,16,14,21,22.20
2016,08,16,14,22,22.20
2016,08,16,14,23,22.30
2016,08,16,14,24,22.40
2016,08,16,14,25,22.50
2016,08,16,14,26,22.60
2016,08,16,14,27,22.60
2016,08,16,14,28,22.60
2016,08,16,14,29,22.70
2016,08,16,14,30,22.70
2016,08,16,14,31,22.70
2016,08,16,14,32,22.70
2016,08,16,14,33,22.60
2016,08,16,14,34,22.60
2016,08,16,14,35,22.60
2016,08,16,14,36,22.50
2016,08,16,14,37,22.40
2016,08,16,14,38,22.20
2016,08,16,14,39,22.00
2016,08,16,14,40,21.90
2016,08,16,14,41,21.80
2016,08,16,14,42,21.80
2016,08,16,14,43,21.90
2016,08,16,14,44,21.90
2016,08,16,14,45,21.90
2016,08,16,14,46,21.90
2016,08,16,14,47,21.90
2016,08,16,14,48,22.00
2016,08,16,14,49,22.10
2016,08,16,14,50,22.10
2016,08,16,14,51,22.00
2016,08,16,14,52,21.80
2016,08,16,14,53,21.60
2016,08,16,14,54,21.50
2016,08,16,14,55,21.40
2016,08,16,14,56,21.40
2016,08,16,14,57,21.30
2016,08,16,14,58,21.30
2016,08,16,14,59,21.30
2016,08,16,15,00,21.20
2016,08,16,15,01,21.30
2016,08,16,15,02,21.40
2016,08,16,15,03,21.50
2016,08,16,15,04,21.60
2016,08,16,15,05,21.70
2016,08,16,15,06,21.60
2016,08,16,15,07,21.60
2016,08,16,15,08,21.70
2016,08,16,15,09,21.80
2016,08,16,15,10,22.00
2016,08,16,15,11,22.20
2016,08,16,15,12,22.50
2016,08,16,15,13,22.80
2016,08,16,15,14,22.90
2016,08,16,15,15,23.10
2016,08,16,15,16,23.20
2016,08,16,15,17,23.30
2016,08,16,15,18,23.40
2016,08,16,15,19,23.40
2016,08,16,15,20,23.30
2016,08,16,15,21,23.20
2016,08,16,15,22,23.10
2016,08,16,15,23,23.00
2016,08,16,15,24,22.90
2016,08,16,15,25,22.90
2016,08,16,15,26,22.90
2016,08,16,15,27,22.90
2016,08,16,15,28,23.00
2016,08,16,15,29,23.00
2016,08,16,15,30,23.10
2016,08,16,15,31,23.20
2016,08,16,15,32,23.20
2016,08,16,15,33,23.30
2016,08,16,15,34,23.40
2016,08,16,15,35,23.50
2016,08,16,15,36,23.70
2016,08,16,15,37,23.80
2016,08,16,15,38,23.80
2016,08,16,15,39,23.90
2016,08,16,15,40,24.00
2016,08,16,15,41,24.10
2016,08,16,15,42,24.00
2016,08,16,15,43,23.70
2016,08,16,15,44,23.40
2016,08,16,15,45,23.10
2016,08,16,15,46,22.80
2016,08,16,15,47,22.60
2016,08,16,15,48,22.50
2016,08,16,15,49,22.50
2016,08,16,15,50,22.50
2016,08,16,15,51,22.60
2016,08,16,15,52,22.70
2016,08,16,15,53,22.90
2016,08,16,15,54,23.00
2016,08,16,15,55,23.00
2016,08,16,15,56,23.00
2016,08,16,15,57,23.00
2016,08,16,15,58,23.00
2016,08,16,15,59,22.90
2016,08,16,16,00,23.00
2016,08,16,16,01,23.00
2016,08,16,16,02,23.00
2016,08,16,16,03,22.90
2016,08,16,16,04,22.90
2016,08,16,16,05,23.00
2016,08,16,16,06,23.00
2016,08,16,16,07,23.00
2016,08,16,16,08,23.00
2016,08,16,16,09,23.10
2016,08,16,16,10,23.10
2016,08,16,16,11,23.10
2016,08,16,16,12,23.20
2016,08,16,16,13,23.20
2016,08,16,16,14,23.30
2016,08,16,16,15,23.40
2016,08,16,16,16,23.40
2016,08,16,16,17,23.30
2016,08,16,16,18,23.10
2016,08,16,16,19,22.90
2016,08,16,16,20,22.80
2016,08,16,16,21,22.70
2016,08,16,16,22,22.60
2016,08,16,16,23,22.70
2016,08,16,16,24,22.70
2016,08,16,16,25,22.70
2016,08,16,16,26,22.70
2016,08,16,16,27,22.70
2016,08,16,16,28,22.80
2016,08,16,16,29,22.80
2016,08,16,16,30,22.80
2016,08,16,16,31,22.80
2016,08,16,16,32,22.80
2016,08,16,16,33,22.80
2016,08,16,16,34,22.80
2016,08,16,16,35,22.90
2016,08,16,16,36,22.80
2016,08,16,16,37,22.80
2016,08,16,16,38,22.80
2016,08,16,16,39,22.80
2016,08,16,16,40,22.80
2016,08,16,16,41,22.80
2016,08,16,16,42,22.80
2016,08,16,16,43,22.80
2016,08,16,16,44,22.90
2016,08,16,16,45,22.90
2016,08,16,16,46,22.90
2016,08,16,16,47,23.00
2016,08,16,16,48,23.00
2016,08,16,16,49,23.10
2016,08,16,16,50,23.10
2016,08,16,16,51,23.00
2016,08,16,16,52,22.90
2016,08,16,16,53,22.90
2016,08,16,16,54,22.80
2016,08,16,16,55,22.80
2016,08,16,16,56,22.70
2016,08,16,16,57,22.70
2016,08,16,16,58,22.80
2016,08,16,16,59,22.80
2016,08,16,17,00,22.90
2016,08,16,17,01,22.90
2016,08,16,17,02,22.90
2016,08,16,17,03,22.90
2016,08,16,17,04,22.80
2016,08,16,17,05,22.80
2016,08,16,17,06,22.80
2016,08,16,17,07,22.70
2016,08,16,17,08,22.80
2016,08,16,17,09,22.80
2016,08,16,17,10,22.80
2016,08,16,17,11,22.80
2016,08,16,17,12,22.80
2016,08,16,17,13,22.80
2016,08,16,17,14,22.80
2016,08,16,17,15,22.80
2016,08,16,17,16,22.80
2016,08,16,17,17,22.90
2016,08,16,17,18,22.80
2016,08,16,17,19,22.80